N8QQ Weather Reports


Display with metric or nautical units.
time (UTC)temp
F
wind
direction
speed
MPH
gust
MPH
rain 1hr
in
rain 24hr
in
rain mn
in
humidity
%
barometer
mb
20260507115025 40 225 1.0 2.0 0.00 0.00 0.00 93 1010.8
20260507114021 40 241 0.0 2.0 0.00 0.00 0.00 94 1010.8
20260507113018 39 219 1.0 2.0 0.00 0.00 0.00 95 1010.8
20260507112035 39 0.0 0.0 0.00 0.00 0.00 96 1010.5
20260507111018 38 0.0 0.0 0.00 0.00 0.00 97 1010.4
20260507110022 38 0.0 0.0 0.00 0.00 0.00 97 1010.3
20260507105025 38 0.0 0.0 0.00 0.00 0.00 97 1010.2
20260507104028 38 0.0 0.0 0.00 0.00 0.00 97 1010.2
20260507103032 38 0.0 0.0 0.00 0.00 0.00 97 1010.2
20260507102036 38 0.0 0.0 0.00 0.00 0.00 97 1010.2
20260507101019 38 0.0 0.0 0.00 0.00 0.00 97 1010.2
20260507100023 38 0.0 0.0 0.00 0.00 0.00 97 1010.2
20260507095025 38 0.0 0.0 0.00 0.00 0.00 97 1010.2
20260507094028 39 0.0 0.0 0.00 0.00 0.00 97 1010.2
20260507093031 39 0.0 0.0 0.00 0.00 0.00 97 1010.2
20260507092018 39 0.0 0.0 0.00 0.00 0.00 97 1009.9
20260507091020 39 0.0 0.0 0.00 0.00 0.00 97 1009.8
20260507090023 40 0.0 0.0 0.00 0.00 0.00 98 1009.8
20260507085026 40 0.0 0.0 0.00 0.00 0.00 98 1009.7
20260507084030 40 0.0 0.0 0.00 0.00 0.00 98 1009.9
20260507083015 40 0.0 0.0 0.00 0.00 0.00 98 1009.6
20260507082019 40 0.0 0.0 0.00 0.00 0.00 98 1009.6
20260507081041 40 0.0 0.0 0.00 0.01 0.00 98 1009.7
20260507080018 40 0.0 0.0 0.00 0.01 0.00 98 1009.7
20260507075016 40 0.0 0.0 0.00 0.02 0.00 98 1009.7
20260507074031 41 0.0 0.0 0.00 0.02 0.00 98 1009.7
20260507073035 41 0.0 0.0 0.00 0.03 0.00 98 1009.7
20260507072018 41 0.0 0.0 0.00 0.05 0.00 98 1009.7
20260507071021 41 0.0 0.0 0.00 0.06 0.00 98 1009.6
20260507070024 41 0.0 0.0 0.00 0.06 0.00 98 1009.6
20260507065029 41 0.0 0.0 0.00 0.09 0.00 97 1009.7
20260507064031 42 0.0 0.0 0.00 0.10 0.00 98 1009.9
20260507063016 42 0.0 0.0 0.00 0.11 0.00 98 1009.9
20260507062019 42 0.0 0.0 0.00 0.11 0.00 97 1009.9
20260507061022 41 0.0 0.0 0.00 0.12 0.00 96 1009.9
20260507060025 42 0.0 0.0 0.00 0.12 0.00 96 1009.9
20260507055029 42 0.0 0.0 0.00 0.14 0.00 96 1010.0
20260507054031 42 0.0 0.0 0.00 0.16 0.00 95 1010.0
20260507053018 42 0.0 0.0 0.00 0.18 0.00 95 1010.1
20260507052040 42 0.0 0.0 0.00 0.21 0.00 95 1010.0
20260507051023 42 0.0 0.0 0.00 0.22 0.00 94 1010.0
20260507050026 42 0.0 0.0 0.00 0.26 0.00 94 1010.0
20260507045023 42 0.0 0.0 0.00 0.29 0.00 94 1010.1
20260507044022 42 0.0 0.0 0.00 0.30 0.00 95 1010.2
20260507043039 42 0.0 0.0 0.00 0.32 0.00 94 1010.0
20260507042015 43 0.0 0.0 0.00 0.32 0.00 93 1010.0
20260507041024 43 0.0 0.0 0.00 0.36 0.00 93 1009.9
20260507040028 43 0.0 0.0 0.00 0.38 0.00 93 1009.9
20260507035030 43 0.0 0.0 0.00 0.38 0.38 92 1009.9
20260507034032 44 0.0 0.0 0.00 0.40 0.38 92 1010.0
20260507033018 44 0.0 0.0 0.00 0.42 0.38 92 1009.9
20260507032021 44 0.0 0.0 0.00 0.42 0.38 91 1009.9
20260507031024 45 0.0 0.0 0.00 0.42 0.38 91 1010.0
20260507030047 45 0.0 0.0 0.00 0.42 0.38 91 1010.1
20260507025052 45 0.0 0.0 0.00 0.42 0.38 88 1010.0
20260507024036 45 0.0 0.0 0.00 0.43 0.38 86 1010.0
20260507023019 46 0.0 0.0 0.00 0.44 0.38 86 1009.9
20260507022042 46 0.0 0.0 0.00 0.44 0.38 84 1009.8
20260507021026 47 0.0 0.0 0.00 0.44 0.38 84 1009.8
20260507020029 48 0.0 0.0 0.00 0.44 0.38 82 1009.8
20260507015032 48 0.0 0.0 0.00 0.46 0.38 80 1009.7
20260507014018 49 0.0 0.0 0.00 0.48 0.38 76 1009.5
20260507013021 50 0.0 0.0 0.00 0.48 0.38 73 1009.4
20260507012023 51 0.0 0.0 0.00 0.48 0.38 69 1009.2
20260507011021 52 0.0 0.0 0.00 0.50 0.38 67 1009.2
20260507010022 52 0.0 0.0 0.00 0.52 0.38 66 1009.3
20260507005032 53 0.0 0.0 0.00 0.55 0.38 65 1009.1
20260507004037 54 0.0 0.0 0.00 0.58 0.38 64 1009.1
20260507003021 54 0.0 0.0 0.00 0.59 0.38 63 1008.8
20260507002044 55 0.0 0.0 0.00 0.59 0.38 62 1008.8
20260507001027 55 0.0 0.0 0.00 0.59 0.38 62 1008.8
20260507000031 56 110 0.0 2.0 0.00 0.60 0.38 61 1008.8
20260506235015 0 270 4.0 4.0 0.00 0.60 0.38 1008.5
20260506234018 56 112 1.0 4.0 0.00 0.60 0.38 62 1008.6
20260506233022 56 130 2.0 5.0 0.00 0.60 0.38 60 1008.6
20260506232045 57 217 2.0 4.0 0.00 0.61 0.38 59 1008.3
20260506231048 58 156 2.0 4.0 0.00 0.62 0.38 58 1008.2
20260506230032 59 125 2.0 4.0 0.00 0.62 0.38 58 1008.2
20260506225017 59 249 1.0 3.0 0.00 0.62 0.38 59 1008.3
20260506224020 58 240 3.0 5.0 0.00 0.62 0.38 58 1008.2
20260506223023 57 238 1.0 2.0 0.00 0.62 0.38 59 1008.5
20260506222028 58 188 2.0 3.0 0.00 0.62 0.38 58 1008.8
20260506221029 58 180 0.0 4.0 0.00 0.62 0.38 60 1008.8
20260506220015 58 152 1.0 6.0 0.00 0.62 0.38 59 1008.7
20260506215017 58 198 1.0 3.0 0.00 0.62 0.38 58 1008.7
20260506214021 58 111 2.0 4.0 0.00 0.62 0.38 58 1008.7
20260506213018 58 177 2.0 4.0 0.00 0.62 0.38 58 1008.6
20260506212015 58 250 3.0 5.0 0.00 0.62 0.38 58 1008.4
20260506211030 58 92 2.0 4.0 0.00 0.63 0.38 57 1008.2
20260506210015 59 186 2.0 4.0 0.00 0.64 0.38 55 1008.1
20260506205019 60 199 2.0 4.0 0.00 0.64 0.38 55 1008.2
20260506204021 60 125 2.0 4.0 0.00 0.64 0.38 56 1008.3
20260506203024 59 241 2.0 4.0 0.00 0.66 0.38 58 1008.4
20260506202027 58 111 1.0 3.0 0.00 0.68 0.38 58 1008.3
20260506201030 59 122 1.0 3.0 0.00 0.69 0.38 57 1008.3
20260506200016 58 123 2.0 3.0 0.00 0.70 0.38 56 1008.5
20260506195020 58 150 2.0 4.0 0.00 0.70 0.38 56 1008.5
20260506194042 59 212 3.0 4.0 0.00 0.72 0.38 54 1008.2
20260506193026 59 232 2.0 4.0 0.00 0.75 0.38 56 1008.0
20260506192029 60 134 2.0 5.0 0.00 0.81 0.38 56 1007.9
20260506191032 60 116 3.0 5.0 0.00 0.88 0.38 55 1007.9
20260506190018 61 237 2.0 5.0 0.00 0.88 0.38 55 1007.9
20260506185020 61 151 3.0 5.0 0.00 0.88 0.38 56 1007.9
20260506184023 62 223 1.0 4.0 0.00 0.88 0.38 54 1007.9
20260506183026 63 144 4.0 6.0 0.00 0.88 0.38 53 1007.8
20260506182023 63 2.0 2.0 0.00 0.88 0.38 55 1007.8
20260506181021 63 151 0.0 3.0 0.00 0.88 0.38 56 1008.0
20260506180017 63 170 2.0 5.0 0.00 0.88 0.38 54 1008.2
20260506175021 63 207 2.0 4.0 0.00 0.88 0.38 55 1008.3
20260506174045 61 84 3.0 5.0 0.00 0.88 0.38 55 1008.3
20260506173027 62 250 0.0 4.0 0.00 0.88 0.38 55 1008.3
20260506172030 62 151 1.0 3.0 0.00 0.88 0.38 55 1008.6
20260506171035 60 247 3.0 5.0 0.00 0.88 0.38 56 1008.6
20260506170018 59 144 3.0 4.0 0.00 0.88 0.38 59 1008.5
20260506165021 58 198 2.0 4.0 0.00 0.88 0.38 61 1008.7
20260506164044 60 144 3.0 5.0 0.00 0.88 0.38 57 1008.6
20260506163028 59 114 2.0 6.0 0.00 0.88 0.38 59 1008.4
20260506162052 60 113 2.0 3.0 0.00 0.88 0.38 58 1008.6
20260506161016 59 93 3.0 6.0 0.00 0.88 0.38 61 1008.6
20260506160019 58 212 2.0 4.0 0.00 0.88 0.38 64 1008.4
20260506155022 57 208 2.0 4.0 0.00 0.88 0.38 65 1008.3
20260506154045 55 139 3.0 8.0 0.00 0.88 0.38 68 1008.2
20260506153028 54 95 3.0 6.0 0.00 0.88 0.38 71 1008.7
20260506152031 53 182 3.0 5.0 0.00 0.88 0.38 72 1008.5
20260506151037 53 52 2.0 5.0 0.00 0.88 0.38 71 1008.3
20260506150020 52 107 3.0 4.0 0.00 0.88 0.38 73 1008.1
20260506145023 51 86 2.0 4.0 0.00 0.88 0.38 77 1007.9
20260506144019 51 82 3.0 5.0 0.00 0.88 0.38 80 1007.3
20260506143017 51 97 2.0 5.0 0.00 0.88 0.38 81 1007.3
20260506142032 49 98 3.0 7.0 0.00 0.88 0.38 83 1007.5
20260506141017 50 172 2.0 6.0 0.00 0.88 0.38 86 1007.5
20260506140020 50 123 2.0 4.0 0.00 0.88 0.38 84 1007.4
20260506135023 49 187 2.0 4.0 0.00 0.88 0.38 89 1007.2
20260506134046 49 138 3.0 4.0 0.00 0.88 0.38 87 1007.2
20260506133029 48 159 3.0 7.0 0.00 0.88 0.38 90 1007.2
20260506132032 47 284 2.0 4.0 0.00 0.88 0.38 93 1006.8
20260506131038 47 235 1.0 3.0 0.00 0.88 0.38 93 1006.8
20260506130020 47 93 1.0 4.0 0.00 0.88 0.38 94 1006.9
20260506125124 46 136 1.0 3.0 0.00 0.88 0.38 94 1006.8
20260506124026 46 184 1.0 3.0 0.00 0.88 0.38 95 1006.7
20260506123049 46 100 1.0 3.0 0.00 0.88 0.38 97 1006.8
20260506122032 46 11 2.0 5.0 0.00 0.88 0.38 97 1006.5
20260506121037 45 274 1.0 3.0 0.00 0.88 0.38 98 1006.2
20260506120020 45 72 1.0 3.0 0.00 0.88 0.38 99 1005.9